Weather History for KLAL - February, 2014

Change the Weather History Date:

Sunday, February 2, 2014

  Actual Average Record
Temperature  
Mean Temperature 72 °F -  
Max Temperature 84 °F 69 °F 84 °F (1985)
Min Temperature 60 °F 50 °F 41 °F (2013)
Cooling Degree Days 7    
Growing Degree Days 22 (Base 50)    
Moisture  
Dew Point 62 °F    
Average Humidity 87    
Maximum Humidity 100    
Minimum Humidity 37    
Precipitation  
Precipitation 0.00 in - - ()
Sea Level Pressure  
Sea Level Pressure 30.11 in    
Wind  
Wind Speed 1 mph (SSE)    
Max Wind Speed 7 mph    
Max Gust Speed -    
Visibility 6 miles    
Events Fog    
Averages and records for this station are not official NWS values.
T = Trace of Precipitation, MM = Missing Value Source: NWS Daily Summary

Daily Weather History Graph

Daily Weather History Graph

Search for Another Location

Airport or City:

Trip Planner

Search our weather history database for the weather conditions in past years. The results will help you decide how hot, cold, wet, or windy it might be!

Date:

Astronomy

Feb. 02, 2014 Rise Set
Actual Time 7:14 AM EST 6:09 PM EST
Civil Twilight 6:50 AM EST 6:33 PM EST
Nautical Twilight 6:22 AM EST 7:01 PM EST
Astronomical Twilight 5:54 AM EST 7:29 PM EST
Moon 9:00 AM EST (2/2) 9:28 PM EST (2/2)
Length of Visible Light 11h 43m
Length of Day
10h 54m
Waxing Crescent, 11% of the Moon is Illuminated
Feb 2
Waxing Crescent
Feb 6
First Quarter
Feb 14
Full
Feb 22
Last Quarter
Mar 1
New

Hourly Weather History & Observations

Time (EST) Temp. Heat Index Dew Point Humidity Pressure Visibility Wind Dir Wind Speed Gust Speed Precip Events Conditions
12:15 AM 64.4 °F - 64.4 °F 100% 30.13 in 0.2 mi Calm Calm - N/A Fog Fog
12:35 AM 64.4 °F - 64.4 °F 100% 30.13 in 0.2 mi Calm Calm - N/A Fog Fog
12:55 AM 62.6 °F - 62.6 °F 100% 30.13 in 0.2 mi Calm Calm - N/A Fog Fog
1:15 AM 62.6 °F - 62.6 °F 100% 30.13 in 0.2 mi Calm Calm - N/A Fog Fog
1:35 AM 62.6 °F - 62.6 °F 100% 30.13 in 0.2 mi Calm Calm - N/A Fog Fog
1:55 AM 62.6 °F - 62.6 °F 100% 30.13 in 7.0 mi Calm Calm - N/A   Overcast
2:15 AM 62.6 °F - 62.6 °F 100% 30.13 in 5.0 mi Calm Calm - N/A   Scattered Clouds
2:35 AM 62.6 °F - 62.6 °F 100% 30.12 in 4.0 mi Calm Calm - N/A   Mostly Cloudy
2:55 AM 62.6 °F - 62.6 °F 100% 30.12 in 0.5 mi Calm Calm - N/A Fog Fog
3:15 AM 62.6 °F - 62.6 °F 100% 30.12 in 0.2 mi Calm Calm - N/A Fog Fog
3:35 AM 62.6 °F - 62.6 °F 100% 30.12 in 2.0 mi Calm Calm - N/A   Overcast
3:55 AM 62.6 °F - 62.6 °F 100% 30.12 in 2.5 mi Calm Calm - N/A   Overcast
4:15 AM 62.6 °F - 62.6 °F 100% 30.12 in 0.2 mi Calm Calm - N/A Fog Fog
4:35 AM 62.6 °F - 62.6 °F 100% 30.12 in 0.2 mi Calm Calm - N/A Fog Fog
4:55 AM 60.8 °F - 60.8 °F 100% 30.12 in 0.2 mi Calm Calm - N/A Fog Fog
5:15 AM 60.8 °F - 60.8 °F 100% 30.11 in 0.2 mi Calm Calm - N/A Fog Fog
5:35 AM 60.8 °F - 60.8 °F 100% 30.12 in 0.2 mi Calm Calm - N/A Fog Fog
5:50 AM 62.6 °F - 62.6 °F 100% 30.12 in 1.0 mi Calm Calm - N/A   Partly Cloudy
7:26 AM 62.6 °F - 62.6 °F 100% 30.14 in 0.2 mi Calm Calm - N/A Fog Fog
7:50 AM 62.6 °F - 62.6 °F 100% 30.15 in 0.1 mi Calm Calm - N/A Fog Fog
8:50 AM 68.0 °F - 68.0 °F 100% 30.16 in 0.2 mi SE 3.5 mph - N/A Fog Fog
9:10 AM 69.8 °F - 69.8 °F 100% 30.16 in 3.0 mi SE 3.5 mph - N/A   Scattered Clouds
9:36 AM 69.8 °F - 69.8 °F 100% 30.17 in 7.0 mi South 3.5 mph - N/A   Mostly Cloudy
9:50 AM 71.6 °F - 71.6 °F 100% 30.17 in 7.0 mi SSE 5.8 mph - N/A   Overcast
11:11 AM 78.8 °F - 68.0 °F 69% 30.16 in 10.0 mi South 5.8 mph - N/A   Mostly Cloudy
11:50 AM 78.8 °F - 66.2 °F 65% 30.15 in 10.0 mi SSE 4.6 mph - N/A   Mostly Cloudy
12:50 PM 80.6 °F 82.3 °F 64.4 °F 58% 30.12 in 15.0 mi SSE 6.9 mph - N/A   Scattered Clouds
1:50 PM 82.4 °F 83.4 °F 62.6 °F 51% 30.08 in 15.0 mi Calm Calm - N/A   Scattered Clouds
2:50 PM 84.2 °F 83.5 °F 57.2 °F 40% 30.06 in 10.0 mi South 6.9 mph - N/A   Mostly Cloudy
3:50 PM 84.2 °F 83.5 °F 57.2 °F 40% 30.06 in 10.0 mi SSE 6.9 mph - N/A   Mostly Cloudy
4:45 PM 84.2 °F 83.0 °F 55.4 °F 37% 30.06 in 10.0 mi SE 6.9 mph - N/A   Scattered Clouds
5:50 PM 80.6 °F 80.8 °F 57.2 °F 45% 30.07 in 10.0 mi Calm Calm - N/A   Scattered Clouds
6:45 PM 75.2 °F - 57.2 °F 53% 30.07 in 10.0 mi SE 4.6 mph - N/A   Partly Cloudy
7:55 PM 69.8 °F - 59.0 °F 68% 30.08 in 10.0 mi WSW 4.6 mph - N/A   Clear
8:50 PM 68.0 °F - 62.6 °F 83% 30.09 in 10.0 mi Calm Calm - N/A   Partly Cloudy
9:50 PM 66.2 °F - 62.6 °F 88% 30.09 in 10.0 mi Calm Calm - N/A   Scattered Clouds
9:55 PM 64.4 °F - 59.0 °F 83% 30.10 in 10.0 mi South 3.5 mph - N/A   Scattered Clouds
10:15 PM 62.6 °F - 62.6 °F 100% 30.10 in 10.0 mi Calm Calm - N/A   Clear
10:35 PM 62.6 °F - 60.8 °F 94% 30.10 in 10.0 mi Calm Calm - N/A   Scattered Clouds
10:55 PM 62.6 °F - 62.6 °F 100% 30.10 in 10.0 mi Calm Calm - N/A   Overcast
11:15 PM 62.6 °F - 60.8 °F 94% 30.09 in 10.0 mi Calm Calm - N/A   Mostly Cloudy
11:35 PM 62.6 °F - 60.8 °F 94% 30.09 in 10.0 mi Calm Calm - N/A   Clear
11:55 PM 64.4 °F - 60.8 °F 88% 30.09 in 10.0 mi Calm Calm - N/A   Clear